Wind_Gust
31 36 40 41 38 37 33 35 31 31 25 27 28 30 32 27 28 25 28 30 32 30 31 27 28 21 20 17 21 22 24 23 24 24 23 21 20 23 23 23 20 21 18 17 21 23 22 24 21 17 15 17 16 15 17 17 15 16 18 16 16 16 15 16 15 19 16 15 15 13 15 16 15 17 15 16 15 16 16 15 15 15 14 14 15 15
32 37 38 35 32 32 32 32 31 32 20 25 29 32 32 27 29 23 22 28 33 29 27 26 28 23 18 17 16 22 23 23 25 25 26 25 20 22 23 23 20 20 20 19 21 21 20 21 20 20 19 16 17 14 15 16 19 16 18 16 16 15 15 15 15 15 15 13 14 14 16 17 17 16 16 17 17 18 17 15 15 16 16 16 17 17
39 45 38 32 32 29 30 32 32 28 24 23 27 30 31 32 27 25 23 25 30 29 27 31 28 21 18 17 22 24 20 22 23 22 24 24 24 24 22 20 20 21 22 23 23 21 23 19 18 19 17 16 16 15 15 16 17 17 17 17 17 17 16 16 15 15 17 15 15 15 17 16 19 18 18 18 16 16 16 15 15 16 16 16 17 17
40 39 33 30 32 30 31 31 31 25 23 24 26 30 34 29 31 29 24 26 26 31 26 27 26 22 18 17 20 23 21 19 19 19 20 20 23 23 23 22 23 23 22 23 26 26 23 21 19 17 17 16 15 15 15 15 17 16 16 16 17 17 16 17 16 18 19 19 18 19 19 17 17 18 17 15 15 14 14 15 15 16 15 16 17 18
37 25 30 29 32 30 30 32 33 27 27 27 25 25 31 27 27 24 28 29 25 25 23 28 25 23 22 21 24 23 21 21 21 21 21 20 19 20 22 22 22 24 24 26 26 24 24 24 22 21 18 18 18 17 16 15 17 17 16 17 17 17 16 15 16 17 17 19 19 19 18 17 18 15 14 13 13 13 13 14 16 17 17 17 18 17
32 26 30 31 33 31 31 35 38 29 27 29 28 24 25 24 26 25 28 29 31 32 29 29 29 28 27 25 25 23 26 25 25 23 24 21 22 23 22 22 23 21 20 28 26 25 25 25 25 23 21 19 16 17 16 17 18 17 17 17 18 17 16 16 15 14 13 15 16 14 14 15 15 15 13 13 12 12 13 15 14 16 18 17 17 18
31 26 34 33 34 33 32 32 31 29 29 27 32 28 25 26 28 27 31 33 35 37 33 33 32 25 25 25 25 25 24 25 26 26 26 24 25 24 23 23 23 23 22 22 23 24 28 27 27 25 20 18 17 15 15 15 16 17 18 17 17 17 17 16 14 14 14 16 16 14 12 11 13 13 14 14 13 12 12 12 13 14 15 17 16 16
33 34 35 35 34 37 32 34 34 33 30 30 25 25 17 21 30 30 30 32 29 22 26 32 36 27 27 27 28 25 24 25 27 28 25 27 26 23 22 21 21 22 21 24 23 25 26 27 27 28 24 20 21 19 15 13 15 17 16 17 17 18 18 15 15 15 14 16 13 13 13 13 14 14 14 12 12 11 11 12 12 12 14 15 17 17
32 37 34 35 30 36 36 29 27 31 35 26 27 25 22 21 24 27 30 31 28 28 29 32 30 36 28 25 28 29 27 27 27 26 26 27 25 24 23 23 22 20 21 23 25 24 24 26 27 27 27 24 22 20 19 15 15 16 17 18 17 19 18 17 15 14 16 16 16 15 12 12 12 12 11 11 10 11 11 11 11 12 12 14 15 17
38 27 31 30 32 35 28 28 25 30 36 22 24 23 22 20 22 28 30 31 29 32 30 30 32 37 29 25 30 29 29 31 30 28 26 25 25 24 24 23 23 22 20 22 23 23 22 25 26 25 26 24 22 20 19 17 16 16 17 18 17 18 18 17 16 16 15 14 13 13 13 13 11 10 10 10 11 11 10 11 11 12 14 14 14 16
25 22 24 36 37 29 27 26 26 31 30 21 22 27 27 26 25 25 28 32 28 32 32 28 31 33 32 29 32 36 39 33 31 30 26 26 25 23 23 23 23 24 23 23 22 23 23 24 25 25 25 24 22 19 18 16 15 16 16 15 19 18 17 16 16 16 16 16 16 15 13 12 11 10 9 10 10 11 10 12 12 13 14 15 15 16
31 30 31 37 28 30 25 30 26 29 28 23 29 32 29 27 23 24 27 28 34 34 28 31 31 32 36 28 33 32 26 31 32 32 32 31 29 27 24 25 24 23 22 24 24 25 25 26 24 25 25 22 20 19 19 17 17 17 17 18 19 18 17 16 16 15 16 17 18 17 16 15 13 11 11 10 11 11 12 12 13 14 15 15 15 15
30 34 28 26 27 29 33 29 30 33 31 28 28 31 31 33 32 32 30 33 34 34 27 31 30 32 38 26 27 34 30 31 33 33 34 31 30 27 27 26 25 25 23 25 25 26 26 27 27 25 24 23 20 21 19 20 17 17 17 18 19 18 16 17 16 16 16 16 16 16 16 14 14 14 13 13 13 12 13 14 14 14 15 15 16 17
27 25 32 30 27 31 30 36 37 39 37 32 35 35 34 37 32 26 31 28 29 30 22 30 31 37 22 29 18 27 28 32 34 31 32 31 29 29 29 27 26 25 24 25 26 25 25 26 26 25 24 22 21 20 20 19 18 16 17 17 17 18 16 16 16 17 17 17 17 17 16 16 16 16 15 16 16 14 15 15 15 15 16 17 16 17
32 37 40 38 40 32 34 32 30 29 34 35 27 34 30 29 36 27 33 32 30 28 27 20 34 33 29 19 20 22 25 30 38 34 30 30 28 28 28 28 26 25 23 25 26 25 25 26 25 25 22 22 22 21 20 19 19 17 17 17 19 18 16 16 17 17 17 18 17 17 17 16 16 16 17 17 16 16 15 16 16 16 16 17 17 18
30 28 29 31 19 34 30 30 27 29 30 32 31 27 31 32 25 29 21 25 31 29 27 31 29 19 20 17 16 17 25 23 25 30 31 30 28 28 27 27 26 26 25 26 25 25 25 25 23 22 21 21 21 20 19 19 18 16 17 17 18 19 18 18 17 17 17 17 18 18 18 18 17 17 17 17 16 16 16 16 17 17 16 16 17 16
34 33 32 33 25 34 30 29 28 29 36 34 33 37 32 24 26 18 9 17 9 23 27 23 29 21 22 18 16 19 22 25 25 29 33 31 30 27 27 26 26 26 26 27 26 25 25 24 23 22 21 21 20 20 18 17 17 18 18 19 19 19 17 17 17 17 17 18 18 18 18 17 17 18 17 18 16 16 16 16 16 17 16 16 16 15
29 27 34 36 31 32 31 29 23 30 24 32 39 31 23 26 25 25 25 19 22 26 23 29 28 27 27 28 25 23 25 27 28 31 30 30 31 31 28 27 28 28 26 26 25 25 27 26 24 23 22 20 19 18 19 18 17 18 18 18 20 17 16 16 17 17 17 17 17 17 18 17 17 17 17 17 17 17 17 17 17 16 18 16 15 16
30 32 34 34 27 29 31 31 28 27 30 26 31 22 39 33 30 26 25 26 29 27 26 29 25 29 29 25 32 27 30 30 30 31 30 31 33 32 29 28 27 27 27 27 27 27 27 26 25 24 22 21 20 19 19 20 19 19 18 19 19 18 16 16 16 15 16 15 16 17 16 16 17 17 18 18 18 18 19 19 20 18 17 15 16 16
33 28 30 29 30 31 33 37 36 34 33 28 20 33 30 22 25 26 28 18 29 22 21 26 27 29 29 24 29 31 31 32 32 32 34 33 32 33 31 31 31 30 28 28 28 29 28 26 24 24 23 22 21 20 20 19 20 20 20 20 18 18 17 17 17 16 16 16 17 17 17 17 18 19 19 19 19 20 19 19 18 17 16 16 16 16
31 23 27 35 29 33 41 44 35 34 36 34 28 32 34 29 20 25 25 29 29 26 25 20 25 28 23 23 26 27 30 31 34 36 34 33 31 30 29 32 31 29 28 29 28 28 28 26 24 23 22 23 21 21 20 20 20 20 20 19 19 18 19 17 17 17 17 18 18 17 17 18 19 19 20 19 18 18 18 17 17 17 16 17 17 16
25 29 24 36 39 38 33 32 27 31 31 32 32 29 29 30 30 31 27 29 31 30 27 25 25 24 19 16 19 26 30 32 32 32 32 31 29 29 28 29 31 30 28 28 27 28 28 27 26 24 24 23 23 23 21 21 20 19 18 19 20 19 18 18 18 17 17 16 17 17 18 18 18 19 19 18 18 18 18 18 17 16 16 16 17 17
27 24 26 29 34 30 27 27 29 26 28 30 32 30 28 27 26 29 28 24 29 30 18 21 19 16 15 14 14 21 27 29 30 28 29 28 28 28 28 27 27 29 29 30 29 30 28 26 25 26 24 23 22 22 22 21 20 19 18 19 19 18 17 17 18 18 17 18 18 18 18 18 19 18 17 18 17 18 18 17 17 17 17 17 17 17
11 33 30 28 25 24 25 25 30 29 26 30 34 30 29 31 29 27 25 19 25 26 26 21 21 15 13 11 11 13 19 23 26 25 28 27 27 27 28 28 28 28 27 27 29 29 29 27 25 26 25 26 24 22 22 21 21 20 18 20 20 19 19 19 18 19 18 18 19 18 18 18 18 17 17 17 18 17 16 17 17 17 17 17 16 17
33 27 27 27 29 32 28 25 33 33 33 33 33 34 29 27 25 24 23 20 22 26 26 24 25 19 16 11 14 17 22 24 26 25 26 28 26 28 29 29 28 29 29 29 29 28 28 27 27 26 26 25 25 24 22 22 21 20 20 20 21 20 19 19 19 19 19 19 19 18 18 17 17 18 18 17 17 16 16 16 16 16 17 17 17 17
26 21 30 32 31 35 38 36 38 38 37 27 25 30 32 30 27 28 28 27 23 17 25 27 21 19 16 15 20 22 23 23 23 25 24 25 27 29 29 30 30 30 31 30 30 28 28 28 27 26 24 25 25 25 24 23 23 22 22 22 19 20 19 19 20 20 19 19 19 19 18 18 18 18 18 17 16 16 15 15 15 16 16 16 17 17
26 21 27 26 27 26 22 20 20 25 30 35 25 27 32 30 27 25 23 27 27 18 21 20 19 17 18 18 23 25 26 27 29 27 29 28 27 28 28 30 29 29 31 31 31 30 28 26 26 26 25 25 24 23 23 23 23 23 23 22 20 21 20 20 20 20 19 19 19 19 18 17 17 17 16 16 15 15 15 15 15 16 17 16 17 17
21 23 23 22 22 22 23 27 23 30 30 30 27 26 28 32 28 26 25 28 19 21 26 20 20 21 19 22 23 26 25 26 28 29 30 30 31 31 29 28 24 30 30 31 31 30 29 27 27 27 25 25 25 24 24 23 24 24 23 23 22 21 20 19 19 20 19 19 19 18 18 17 16 16 16 15 15 16 15 15 15 15 15 16 16 17
23 19 22 20 23 15 18 25 32 29 29 31 30 26 28 27 28 31 26 24 19 21 17 18 20 22 22 27 29 33 35 35 33 32 30 28 29 29 31 32 32 32 32 34 32 30 29 29 27 27 26 26 25 25 23 24 24 23 23 23 22 21 21 20 20 20 20 20 19 18 18 17 16 16 16 16 16 15 15 16 15 15 15 15 16 16
24 21 21 22 21 16 13 14 16 21 23 26 29 28 27 28 29 29 27 26 25 18 19 12 16 19 21 24 29 27 24 25 27 26 26 29 31 32 33 33 33 34 34 34 32 30 29 29 28 27 26 26 26 26 25 25 25 25 24 24 23 22 21 21 20 20 20 20 19 18 18 18 16 17 16 16 16 16 15 15 15 15 15 16 16 16
24 19 15 24 24 23 16 13 15 21 19 24 25 29 29 28 28 28 27 27 25 24 19 17 14 18 18 15 23 22 23 24 26 30 31 30 31 35 35 34 34 35 35 34 31 31 29 29 29 28 27 26 27 26 26 25 24 25 24 24 23 23 22 21 21 20 20 21 20 19 19 18 18 17 17 16 16 15 16 16 15 15 16 16 16 16
25 15 18 22 22 25 21 18 16 13 12 16 20 22 25 27 29 29 33 26 27 26 22 20 22 23 19 17 22 25 26 28 30 32 31 32 33 36 36 38 36 35 35 35 32 31 30 30 30 29 28 27 27 26 26 26 25 25 25 24 24 23 22 22 21 21 21 20 20 19 19 18 18 18 17 16 16 16 16 16 16 17 16 16 16 16
29 21 19 21 21 20 22 19 18 14 15 20 20 23 22 20 21 25 26 25 27 22 26 23 25 20 21 25 26 26 28 28 28 33 35 33 36 37 38 41 38 35 36 36 34 32 32 31 30 29 28 28 28 28 27 27 25 25 25 24 23 23 22 22 21 22 22 21 20 20 19 19 19 18 17 17 17 16 16 17 17 17 17 17 16 16
27 24 19 21 22 17 19 19 15 19 22 21 15 13 17 22 24 22 24 26 24 26 27 23 22 22 25 26 28 28 30 38 37 32 31 36 38 37 35 38 37 36 36 35 35 33 33 32 30 30 28 27 26 27 26 26 24 24 24 25 24 23 23 23 22 21 21 21 20 20 19 19 19 19 18 17 17 17 17 17 17 15 15 15 15 16
27 23 18 23 21 19 17 16 21 22 23 17 10 12 12 12 18 23 21 23 25 25 23 22 21 22 25 28 29 31 29 24 22 29 31 32 34 36 38 37 37 37 37 35 34 32 31 31 31 30 28 28 27 26 27 26 25 24 24 24 24 23 24 23 23 22 21 21 21 20 20 20 20 19 19 18 18 17 17 16 15 15 15 15 15 16
22 23 20 20 21 20 22 23 27 23 14 10 11 9 11 9 12 15 21 22 24 26 25 27 23 20 19 20 20 21 21 23 23 25 28 29 32 35 37 39 37 37 38 37 36 33 33 33 32 31 30 29 29 28 27 26 26 25 25 24 24 24 24 24 23 23 22 21 21 21 20 20 20 20 19 19 19 18 17 16 15 15 14 15 16 16
22 24 21 22 25 23 20 21 23 16 13 14 13 15 23 22 21 23 21 27 26 27 28 28 25 22 21 20 20 22 22 24 22 24 26 28 31 33 35 34 36 35 36 36 35 34 32 32 31 31 30 28 28 29 26 26 25 25 26 25 25 25 24 24 23 23 22 21 21 21 21 21 21 20 20 19 19 18 17 16 15 14 15 15 15 16
23 25 23 22 21 22 21 23 26 22 24 17 16 12 20 12 14 20 21 24 25 28 27 27 26 23 23 23 24 25 24 24 23 27 30 31 32 33 33 31 33 34 35 36 35 33 31 30 31 31 32 29 28 27 27 25 25 26 25 25 25 25 25 24 24 24 23 22 22 22 21 21 21 20 20 19 19 18 16 15 15 14 13 15 15 15
23 24 23 24 16 20 22 24 27 24 22 14 17 20 18 13 14 13 19 23 25 28 28 27 26 26 26 28 28 28 27 25 27 27 33 35 36 36 36 34 34 34 34 34 34 34 33 33 32 32 31 30 29 28 26 26 26 27 26 26 26 25 25 25 25 24 24 23 22 21 21 21 20 20 19 20 18 16 16 15 15 14 14 14 14 15
18 20 20 26 20 22 21 25 24 23 21 18 20 17 18 14 13 19 19 22 25 28 27 27 27 28 27 29 29 29 28 24 27 23 33 35 35 37 37 35 35 35 34 35 35 36 34 33 33 33 33 31 29 28 28 27 27 25 26 26 26 25 25 25 25 25 24 23 22 21 21 19 19 19 19 19 17 15 15 14 14 13 12 13 14 14
23 21 20 22 23 19 18 24 22 20 15 16 19 20 17 14 14 15 21 12 14 20 24 25 25 27 29 29 31 29 24 16 15 23 36 36 36 36 33 32 33 34 36 36 37 32 35 34 34 35 34 32 32 29 28 28 28 27 26 26 26 25 25 25 25 25 24 23 22 22 21 20 19 19 18 17 16 15 14 14 14 13 13 14 14 13
22 17 19 18 23 23 21 25 24 13 15 16 18 20 19 17 14 20 14 10 10 16 17 19 21 25 27 28 24 17 15 13 17 30 35 37 37 36 35 36 36 35 35 35 35 34 34 34 32 33 33 32 32 30 29 29 29 28 28 27 26 25 26 26 26 25 24 24 23 22 21 20 19 18 17 16 15 15 14 14 13 13 13 14 13 13
26 27 24 25 21 21 18 23 21 25 12 19 21 18 15 16 10 15 11 11 10 14 19 17 19 22 24 23 20 13 15 17 23 29 32 34 35 37 36 37 38 38 39 39 38 35 36 34 35 35 33 34 31 30 29 29 28 28 28 28 26 27 27 26 26 25 25 24 23 22 21 20 18 17 16 15 15 15 15 14 14 13 13 13 12 12
21 25 25 23 24 24 22 25 22 13 20 23 25 13 22 14 13 13 14 15 10 12 17 17 18 20 22 22 22 17 17 21 24 28 30 31 32 34 34 34 35 36 37 37 37 36 34 35 34 34 31 32 31 30 30 31 30 29 28 28 28 27 27 27 26 26 25 23 23 22 22 21 19 17 16 16 15 15 14 14 14 13 12 11 11 12
17 19 15 15 22 26 16 14 16 11 17 22 11 16 16 14 12 11 12 11 10 12 13 15 17 19 21 21 19 19 21 21 26 30 32 32 34 35 35 36 37 37 38 38 37 37 34 37 35 34 33 32 31 30 31 30 31 30 29 29 28 29 28 27 26 25 24 24 23 22 22 20 19 19 17 16 15 15 15 13 13 13 11 11 11 11
11 10 10 17 17 12 13 12 11 11 15 18 14 14 12 10 11 10 11 10 14 11 13 13 15 19 21 20 22 21 20 23 27 29 29 31 33 33 33 35 36 36 36 36 36 37 34 36 35 34 34 32 31 31 29 29 30 31 30 29 28 28 28 27 26 25 25 25 23 23 23 21 20 19 18 16 16 15 14 13 12 12 11 11 11 12
12 11 14 20 12 13 19 17 15 13 12 13 15 11 9 8 10 10 9 12 13 11 12 12 14 18 20 21 22 21 22 25 27 27 28 31 34 35 36 36 37 38 39 38 38 36 37 35 37 36 34 34 31 31 30 29 30 30 29 29 29 28 28 26 25 24 23 23 23 22 22 20 20 19 17 15 15 14 13 11 11 10 11 11 11 11
19 11 15 16 13 17 8 13 13 12 9 10 16 17 12 13 10 9 10 10 10 11 10 11 13 17 18 21 21 21 23 25 27 27 29 30 33 35 36 37 38 37 37 37 39 37 36 37 36 36 35 35 33 31 31 31 31 31 31 30 29 28 27 26 24 25 24 24 22 22 21 20 12 16 18 16 15 14 13 12 11 11 11 11 10 10
16 13 13 12 21 16 11 12 12 12 13 14 16 15 12 13 13 11 9 10 9 11 12 12 14 16 19 19 20 21 24 25 26 27 29 30 31 33 35 37 37 38 38 38 39 37 38 36 37 37 35 34 32 31 31 30 31 32 31 30 29 28 27 26 22 22 23 23 22 21 20 20 21 19 17 16 15 14 13 11 10 12 13 12 13 15
15 20 14 14 15 16 16 16 14 15 12 17 15 18 16 12 11 11 11 12 12 14 14 15 15 15 17 18 21 23 24 25 24 26 28 29 30 31 32 35 36 37 37 38 39 36 35 34 37 37 36 34 33 32 32 31 31 31 32 30 30 29 27 26 25 23 23 23 21 21 20 20 20 17 18 17 15 15 13 9 12 14 11 16 9 9
16 14 14 13 17 11 17 12 14 15 17 16 12 12 16 16 14 14 14 14 14 13 15 16 18 18 18 19 21 22 23 24 25 25 25 26 29 31 32 33 36 37 39 38 38 36 36 36 36 35 34 34 32 33 32 31 32 32 32 30 30 29 26 26 23 23 22 21 20 20 20 20 19 17 18 17 16 16 15 17 15 10 11 11 10 6
Wind_Speed
13 16 17 19 18 20 21 21 19 18 14 16 15 16 16 12 14 14 16 18 19 15 16 15 10 8 6 7 10 9 10 9 12 14 11 11 11 11 11 9 9 9 9 9 12 11 10 11 10 10 9 9 9 6 6 6 8 5 4 2 2 1 2 2 3 8 7 5 5 5 6 6 6 7 7 7 7 7 7 8 7 7 6 7 7 7
15 17 18 20 19 18 20 19 20 20 8 14 16 17 15 14 13 10 9 17 17 15 13 12 12 10 8 11 6 9 10 12 12 15 16 15 12 12 13 11 9 11 11 11 12 13 14 12 13 12 10 10 8 5 7 6 6 7 5 3 3 2 3 3 7 2 1 2 4 4 6 7 7 7 7 7 7 8 7 8 7 7 8 8 8 8
17 20 20 20 19 17 18 20 20 18 14 13 11 14 15 14 13 14 11 13 15 14 11 17 13 8 8 8 11 12 12 9 12 10 13 14 14 13 12 11 11 10 10 12 13 13 13 13 12 11 9 9 9 9 7 6 6 3 4 4 2 0 6 7 4 4 3 4 5 6 6 7 8 8 8 8 7 8 8 7 7 7 8 8 8 9
18 18 21 18 18 18 19 19 20 15 10 10 11 12 15 14 16 12 12 15 12 11 9 14 10 6 7 9 6 8 7 8 6 5 10 11 12 14 13 11 12 12 11 11 13 15 14 13 11 10 9 9 8 7 7 7 7 5 3 5 3 4 7 2 3 3 7 9 8 9 9 8 8 8 8 8 7 7 7 8 7 7 7 8 8 9
18 13 18 17 20 19 18 19 20 12 11 14 13 12 14 15 11 10 11 14 14 14 8 16 6 3 5 9 11 12 11 6 10 11 9 10 10 11 11 12 12 13 13 11 11 12 14 15 13 13 10 9 10 9 6 6 6 4 4 1 4 3 4 7 5 1 6 8 9 9 9 9 9 7 6 6 6 6 6 6 7 7 8 8 8 8
17 15 18 18 20 18 17 17 21 15 11 13 17 14 13 13 14 14 12 16 12 13 13 14 7 8 12 13 11 10 12 12 10 11 10 10 10 12 13 13 13 12 11 12 11 12 12 14 15 14 12 10 9 8 7 8 7 6 3 6 6 4 1 2 3 4 5 6 7 7 6 6 7 7 5 5 5 5 5 5 6 7 8 8 8 8
13 15 20 20 20 20 19 17 19 15 12 12 13 16 15 14 15 15 16 15 12 13 13 14 10 8 11 12 12 12 12 14 12 11 12 11 12 12 12 12 12 12 12 11 11 12 13 15 16 13 11 11 11 8 7 5 7 5 6 7 6 5 5 5 5 5 6 7 7 6 6 5 5 6 6 6 6 5 5 5 5 6 7 7 7 7
13 19 19 21 21 20 16 14 15 18 13 11 12 16 7 11 17 18 17 16 10 11 13 18 14 10 8 11 14 14 14 15 17 17 16 10 14 13 12 11 11 12 12 12 13 13 14 14 13 12 13 11 13 12 9 6 3 7 6 6 6 6 6 6 6 8 6 6 5 7 6 5 6 6 6 6 5 5 5 5 5 5 6 8 8 8
19 21 22 22 19 16 15 15 17 20 14 9 12 13 13 8 13 12 14 13 12 11 11 14 17 12 10 10 16 16 14 15 15 13 15 17 15 13 12 12 12 12 12 12 12 14 13 13 14 14 14 13 13 12 11 9 8 7 7 7 7 7 7 6 7 7 9 6 8 5 5 6 5 5 5 5 4 5 5 5 5 5 6 6 7 8
15 15 15 15 15 14 15 16 13 18 16 11 13 13 11 11 9 14 12 13 12 12 13 14 14 12 11 9 12 14 15 16 14 15 13 12 13 15 13 14 14 13 12 11 12 12 13 14 15 15 15 14 12 10 11 10 9 8 8 10 9 8 7 7 8 7 7 7 5 6 6 6 5 4 4 4 5 5 4 5 6 6 6 6 6 6
9 10 14 13 16 14 15 15 14 17 19 8 11 13 12 10 11 11 12 11 10 12 14 15 17 15 11 12 13 13 14 12 11 10 11 14 13 12 13 14 12 13 13 12 12 11 13 13 15 16 15 14 13 11 10 9 8 8 8 8 7 8 7 7 7 7 7 6 6 5 6 6 6 4 4 4 4 4 5 6 6 6 6 6 6 6
14 15 13 13 16 14 14 15 15 16 17 10 10 12 12 12 10 10 10 11 11 13 13 14 15 18 14 10 11 12 11 13 12 14 14 15 14 13 14 13 13 12 12 13 13 13 14 14 15 15 15 14 12 11 10 9 9 9 8 7 9 8 8 7 6 6 6 7 7 6 6 6 5 4 4 5 5 5 6 6 6 6 6 6 6 6
16 16 14 15 15 18 16 15 14 16 17 11 12 14 13 10 8 10 10 12 13 12 10 15 16 13 16 12 11 18 15 16 17 15 17 16 16 15 14 15 14 13 12 12 13 14 14 15 15 15 15 13 13 11 11 11 9 8 7 8 8 8 7 7 7 7 7 6 6 6 6 6 5 6 6 6 6 6 6 6 6 6 6 6 6 6
11 13 19 16 14 15 16 15 15 16 17 14 15 14 14 13 12 10 12 8 9 11 11 14 19 14 9 13 9 16 17 15 15 15 15 17 16 16 16 15 14 13 13 12 12 12 14 14 15 15 14 13 12 12 11 10 9 8 7 8 8 8 7 6 6 7 7 6 6 6 6 6 6 7 7 6 6 6 6 6 7 6 6 7 7 7
12 15 18 21 15 17 16 14 14 13 16 14 13 14 13 11 9 9 11 11 12 10 12 10 14 10 13 4 11 12 14 19 23 19 16 15 16 16 15 16 16 14 12 13 12 13 14 15 16 14 13 12 12 11 10 10 10 9 7 8 9 8 7 6 7 7 7 6 6 6 5 6 6 7 7 7 6 7 7 7 7 6 6 7 6 7
17 10 14 18 10 18 15 16 15 16 14 14 13 12 13 12 10 11 7 10 12 11 11 10 6 7 4 5 5 7 14 12 14 17 15 17 16 16 15 15 15 14 13 13 12 13 15 16 15 13 12 12 12 12 11 11 9 8 7 7 8 7 7 7 7 8 8 8 8 8 8 7 7 7 7 7 7 7 7 8 7 7 7 7 6 7
14 11 19 17 15 20 17 16 13 14 11 13 14 15 13 11 12 6 2 3 3 7 9 4 10 7 7 6 4 9 12 14 14 18 20 18 18 16 14 14 14 13 12 14 14 14 16 15 14 12 13 12 11 11 10 10 9 9 9 8 7 8 8 8 9 9 8 8 8 8 8 8 8 8 8 8 9 9 8 8 7 7 7 7 6 6
11 11 19 17 18 18 18 15 13 16 11 10 14 13 11 12 12 8 6 6 7 9 6 11 12 12 9 8 11 11 13 13 15 16 17 17 18 17 15 13 15 14 13 15 15 15 15 15 15 13 12 12 12 11 11 11 10 8 7 8 9 9 9 9 9 9 9 9 8 8 8 8 8 8 9 8 9 8 8 8 7 7 7 7 6 6
12 12 15 20 16 16 18 17 15 15 18 11 13 8 13 11 13 11 6 10 11 9 7 12 14 13 12 8 15 15 15 16 16 16 16 19 19 17 14 15 15 15 14 14 15 14 14 14 14 13 13 12 12 11 11 10 9 9 7 7 8 9 9 9 8 8 7 7 6 6 7 8 9 9 9 9 9 9 9 9 8 8 7 7 6 6
13 9 11 16 15 17 16 16 14 14 18 17 10 15 14 8 10 10 6 7 9 8 8 11 13 8 11 9 17 17 17 17 17 17 18 19 19 17 16 16 17 16 15 15 14 14 15 15 14 14 14 14 13 12 11 10 9 9 8 10 10 9 10 9 10 9 8 7 7 7 8 8 9 9 10 9 9 8 9 9 8 8 7 7 6 6
11 11 9 13 17 17 15 15 16 14 16 14 8 12 13 8 7 7 9 10 10 8 8 6 9 9 8 10 14 15 17 17 17 19 17 17 18 18 17 16 16 16 14 15 16 15 16 15 15 14 13 13 12 11 10 9 10 9 8 10 10 11 10 10 9 9 8 8 8 9 10 10 10 10 10 10 9 9 9 8 8 7 7 6 7 6
6 11 9 14 16 16 15 16 16 17 16 12 11 11 12 12 12 13 10 10 9 10 8 8 8 7 5 2 9 13 15 15 16 17 16 17 18 17 16 16 17 15 15 15 16 17 16 16 15 14 13 12 11 11 11 10 9 9 9 10 10 9 9 10 9 9 9 8 8 9 10 10 9 9 9 10 9 9 8 8 7 7 7 7 7 7
10 7 10 11 14 13 15 17 17 16 16 15 13 12 13 12 11 10 10 10 10 10 8 8 6 5 5 4 4 11 15 16 17 16 15 16 16 17 16 16 16 16 16 16 17 17 16 16 16 15 14 13 13 12 11 9 9 8 9 10 9 9 9 9 10 9 8 9 9 10 9 9 9 9 10 10 9 9 8 8 7 7 7 7 7 7
3 9 11 12 11 12 13 14 18 17 16 16 16 15 10 12 13 8 9 7 8 11 9 7 7 4 2 4 3 3 11 14 14 16 17 15 14 16 17 17 19 16 16 17 16 16 16 16 15 15 15 14 13 12 11 9 10 8 8 10 9 10 11 10 9 9 9 9 10 10 10 10 9 9 9 9 8 9 8 8 7 7 7 7 6 7
7 10 11 11 9 9 13 12 15 17 14 12 13 15 13 12 15 12 10 6 6 11 12 7 8 5 6 2 3 6 8 12 14 13 14 15 15 15 16 15 14 15 15 17 18 17 17 17 16 15 15 14 13 12 10 10 11 9 10 10 11 10 9 9 9 10 9 10 10 10 9 10 9 10 10 9 8 9 8 8 7 7 7 7 7 7
10 9 11 12 13 15 15 14 14 16 17 9 12 17 18 17 15 12 11 9 8 8 13 9 5 6 6 7 9 10 10 11 13 14 14 13 15 15 15 13 14 15 15 17 18 17 18 17 15 15 15 13 13 12 11 10 11 10 10 11 10 10 10 10 9 10 10 10 10 10 10 10 10 10 10 9 9 8 8 7 7 6 6 7 7 7
8 9 12 11 11 11 9 9 9 9 11 13 14 16 19 19 16 13 9 10 9 5 8 9 6 7 7 9 13 13 13 14 15 15 15 16 16 16 14 12 14 14 17 19 18 16 17 16 17 17 15 14 13 12 11 11 11 11 11 12 11 10 10 10 10 10 10 10 10 9 9 9 9 8 8 8 8 7 7 7 7 7 7 6 6 7
8 9 12 13 13 12 13 13 13 18 16 17 15 15 17 20 17 15 10 10 7 7 8 7 8 10 8 10 12 14 13 13 14 14 14 14 16 16 15 12 12 13 15 15 16 18 18 17 17 17 16 15 13 12 12 11 11 12 12 12 11 11 10 9 10 10 10 10 9 9 9 9 8 8 8 7 7 7 7 7 7 6 6 6 7 7
7 7 13 12 13 5 8 14 19 17 17 17 18 15 15 15 17 16 14 11 11 8 6 9 9 10 10 10 11 14 17 16 16 15 14 16 16 17 17 20 19 19 17 19 19 18 18 18 17 17 16 15 15 14 13 12 12 12 12 12 11 11 11 10 10 10 10 10 10 9 9 8 8 7 8 8 8 7 7 7 6 6 6 6 7 6
6 7 11 10 9 6 6 5 7 12 13 15 17 17 16 17 17 17 14 12 12 9 11 5 9 11 9 13 12 12 11 12 13 13 14 17 18 19 19 20 20 20 21 20 20 19 18 18 18 17 16 16 15 14 13 13 13 13 13 12 12 12 11 10 10 11 10 10 9 9 9 8 8 8 8 8 8 7 7 7 6 6 7 7 7 7
7 5 9 12 10 9 7 6 6 12 11 13 16 18 18 17 16 15 14 14 14 12 10 8 6 6 6 6 13 11 10 11 14 16 17 17 17 19 21 20 20 20 21 21 20 19 19 18 17 17 17 16 15 14 14 13 13 13 13 13 12 12 11 11 11 11 10 11 10 10 9 8 8 8 8 8 7 7 7 7 6 7 7 7 7 7
10 4 8 9 8 12 11 10 9 7 7 9 10 12 15 17 17 15 13 14 14 13 13 11 9 9 7 5 9 12 13 15 17 17 17 16 19 20 20 20 21 21 22 21 20 19 19 19 18 18 17 16 15 15 14 14 14 13 13 13 12 12 11 11 11 11 11 10 10 10 10 9 9 9 8 8 8 8 7 7 7 7 7 7 7 6
11 5 5 8 9 8 12 11 11 7 4 7 9 12 13 13 12 14 14 15 14 13 13 10 10 8 8 10 11 13 14 15 16 16 17 18 19 20 21 20 20 21 22 23 21 21 20 19 18 18 17 16 15 15 16 15 14 13 13 13 12 11 12 12 11 11 11 11 10 10 9 9 9 9 8 8 8 7 7 8 8 7 7 7 7 6
13 11 7 9 6 6 10 11 8 8 9 7 3 1 10 10 10 11 12 15 15 14 10 10 10 11 9 14 14 14 15 16 16 15 15 16 17 19 20 20 20 21 22 21 21 21 20 18 16 16 16 16 16 16 16 15 13 13 13 13 13 13 12 12 12 11 11 11 10 10 10 10 9 9 9 8 8 8 8 8 7 7 6 6 6 7
13 9 7 9 6 7 7 8 8 9 6 6 3 4 2 7 10 13 10 10 12 13 13 12 11 13 12 12 12 14 15 14 12 14 16 17 17 17 19 20 21 23 23 22 21 20 19 18 17 16 17 17 16 15 15 14 13 13 13 13 13 12 13 12 12 11 11 11 11 10 10 10 10 10 9 9 8 8 8 8 7 7 6 5 5 6
9 9 5 6 5 5 7 7 8 6 6 4 5 3 5 2 4 9 12 13 14 14 15 14 12 12 10 11 11 12 11 12 11 12 15 16 17 17 19 20 22 22 22 21 22 20 19 18 17 18 18 17 16 15 14 14 14 13 13 13 13 13 13 13 12 12 11 11 11 11 10 10 10 10 10 9 9 9 8 7 7 7 6 6 6 6
12 10 7 6 9 8 7 8 8 8 4 7 5 5 8 9 10 11 8 12 13 14 16 15 15 13 11 10 7 9 11 11 10 10 14 16 17 17 18 20 21 21 21 21 21 20 19 19 19 19 18 17 16 16 15 14 14 13 14 14 13 13 13 13 12 12 12 11 11 11 11 11 11 10 10 10 9 9 8 8 7 6 6 6 6 6
10 10 9 9 4 6 7 8 8 8 7 7 9 5 10 6 8 12 10 10 14 16 16 16 16 14 11 10 11 12 13 10 9 10 14 16 17 16 15 16 19 20 22 23 22 20 20 19 19 19 17 18 17 15 15 15 14 14 14 14 14 14 13 13 13 13 12 12 12 11 11 11 11 10 10 9 9 8 7 6 6 6 5 6 6 6
13 12 10 7 5 5 7 8 8 8 6 4 7 11 11 5 8 6 8 9 11 17 17 16 16 14 13 14 14 15 11 10 10 10 15 17 18 17 17 18 18 19 20 19 21 21 20 19 20 19 18 18 17 16 16 16 15 14 14 14 14 14 14 13 13 13 13 12 12 11 11 10 10 10 10 10 9 8 7 7 6 6 5 5 5 5
8 8 7 10 9 8 8 7 7 4 4 9 12 8 9 6 7 8 7 7 11 15 15 16 15 14 15 15 15 14 12 9 12 7 17 19 18 18 17 19 20 21 21 20 21 21 21 20 19 18 19 18 18 17 17 16 14 14 14 14 14 14 14 14 14 13 13 12 12 11 10 10 10 10 10 9 8 7 7 6 5 5 4 5 5 5
8 6 6 9 9 9 10 7 5 4 4 8 11 12 8 6 6 6 8 1 4 9 12 14 14 14 14 14 14 10 11 1 5 9 20 19 18 17 16 17 19 21 21 21 22 23 20 19 19 20 20 18 19 17 16 15 15 15 14 14 14 14 14 14 14 14 13 12 11 11 11 10 10 10 9 8 8 7 6 6 5 5 4 5 4 5
9 6 5 7 9 9 7 8 6 3 3 4 8 11 11 7 4 6 3 2 1 3 7 10 12 13 14 15 11 7 5 6 10 16 18 20 19 19 19 20 20 20 20 20 19 20 18 16 18 20 21 19 18 17 15 15 15 15 15 14 15 15 14 14 14 13 13 12 12 12 11 10 10 9 8 7 7 7 6 6 6 5 5 5 5 4
9 7 8 8 5 6 5 7 6 8 3 7 11 8 6 6 1 3 2 3 3 2 5 6 8 11 12 11 9 5 7 9 13 15 17 18 19 20 21 21 21 22 22 23 23 22 20 18 19 19 18 18 18 16 15 16 16 15 15 15 16 15 15 14 14 14 13 13 12 12 11 11 10 8 7 7 7 7 7 5 5 5 5 6 5 5
10 7 6 6 8 6 6 7 4 3 8 10 10 3 8 2 2 4 4 5 2 2 5 4 5 8 10 10 9 7 8 11 12 14 16 17 17 18 19 20 20 21 22 23 22 21 21 20 20 19 19 18 17 16 15 16 16 16 15 17 15 15 15 14 14 14 13 12 12 12 11 11 10 8 8 8 7 7 7 6 6 5 4 4 4 4
8 6 3 2 7 7 2 3 5 1 7 6 2 7 8 6 5 4 5 3 3 4 2 4 6 7 8 9 9 9 9 10 13 15 17 17 18 19 19 20 21 22 22 23 22 20 19 20 21 19 19 17 18 16 16 16 16 18 17 16 15 16 15 15 15 13 13 13 12 11 11 10 9 9 8 8 7 7 6 6 6 5 4 4 3 3
3 2 2 1 5 3 4 3 4 4 6 7 5 4 4 4 4 3 4 3 6 4 2 3 6 7 8 9 9 8 8 10 13 14 15 17 18 18 18 19 20 22 23 21 21 21 20 21 21 21 20 19 18 16 16 15 16 18 17 16 15 15 15 15 14 14 13 13 12 12 11 11 10 10 9 8 7 7 6 6 5 4 4 4 3 3
3 3 5 7 3 1 3 8 6 4 4 4 4 3 2 0 3 2 3 4 6 4 3 5 4 7 7 8 8 8 9 11 13 13 14 14 16 18 20 20 21 23 24 23 22 20 20 21 20 21 21 20 18 16 16 17 16 16 16 16 16 15 15 14 14 13 12 12 12 11 11 11 9 8 8 7 7 6 5 4 4 3 4 4 3 2
8 2 5 7 5 5 1 3 4 4 1 2 4 4 3 5 3 2 3 4 3 4 3 4 3 6 6 7 8 8 10 12 13 13 13 14 15 16 18 19 22 22 22 22 22 21 21 21 21 22 21 19 18 17 17 17 17 17 17 16 16 15 15 14 13 12 12 13 11 10 11 10 10 9 8 7 6 6 5 4 4 4 2 2 2 3
3 3 3 3 7 5 3 3 4 4 4 3 4 3 1 3 5 4 2 3 2 2 3 3 0 3 5 6 7 8 10 11 12 13 13 14 15 16 18 19 21 23 22 23 23 22 21 21 22 23 21 19 18 17 17 18 17 18 18 16 16 15 15 14 14 12 13 12 11 10 10 9 10 8 7 7 6 6 5 4 3 4 4 5 5 6
3 8 3 3 4 6 3 2 2 4 2 5 3 4 4 4 3 4 4 3 2 3 3 3 3 3 4 5 7 8 10 10 11 12 13 13 15 17 17 19 21 23 22 22 20 21 22 22 23 23 21 19 18 18 18 18 17 17 17 16 16 16 15 14 13 13 13 11 10 10 9 9 9 8 8 7 6 6 5 8 10 9 3 6 5 7
5 5 4 3 4 1 6 2 5 2 7 3 5 2 4 4 4 4 4 3 3 2 3 3 4 5 5 6 7 8 9 10 11 11 11 11 13 15 18 20 22 21 21 21 21 22 22 23 23 22 21 19 18 18 18 17 18 18 17 17 16 16 15 14 11 11 10 10 10 10 9 9 8 7 8 7 7 6 6 5 5 9 10 10 7 5
Wind_Direction
171 201 197 205 207 201 204 208 213 221 208 206 200 204 221 212 205 208 181 179 189 196 207 207 153 148 134 113 91 120 181 180 149 146 153 157 147 142 136 134 140 119 101 89 84 96 100 100 86 84 88 87 74 91 132 136 128 138 182 183 137 46 1 334 231 234 209 184 120 106 96 110 104 99 97 85 78 71 64 58 55 52 50 47 38 35
192 208 208 206 208 202 204 208 214 223 249 229 199 205 214 213 212 181 162 162 184 211 200 134 170 148 137 91 126 182 186 189 169 160 151 148 145 145 139 133 125 115 123 116 102 100 100 106 107 105 109 126 133 144 148 143 129 140 160 159 101 111 12 289 269 323 192 257 94 113 105 96 92 92 89 84 72 71 62 49 48 50 43 39 36 25
202 211 206 202 207 205 203 206 211 222 207 236 226 199 213 201 213 133 190 174 190 203 201 139 165 143 109 160 179 175 177 184 183 165 150 152 157 153 156 132 131 133 129 126 122 119 116 113 107 105 106 114 127 137 133 114 116 121 123 99 126 217 187 213 241 248 88 48 80 85 94 86 81 70 73 78 76 75 73 60 52 45 37 31 33 26
202 211 207 197 204 209 203 205 210 207 212 220 224 197 210 203 203 168 182 188 194 206 193 133 150 133 128 131 178 208 201 179 161 202 170 167 169 164 162 149 145 133 135 138 133 125 121 118 115 111 108 102 107 94 92 104 103 79 71 141 212 209 225 287 158 231 107 97 95 86 80 86 85 90 92 89 85 82 75 65 51 50 45 38 34 30
204 197 200 197 202 208 201 197 208 198 201 216 231 215 202 210 159 181 167 193 196 208 192 120 115 167 165 168 174 195 193 169 169 200 175 177 175 163 154 155 149 142 139 138 128 126 127 121 117 115 107 94 82 84 89 73 84 101 149 148 223 204 199 166 170 160 110 106 96 96 95 100 107 107 98 95 85 74 68 65 47 41 40 39 37 38
206 198 193 202 200 202 204 194 206 199 204 205 224 234 218 194 178 204 179 190 183 199 204 185 172 217 192 197 181 165 169 167 182 182 191 181 180 167 159 151 141 138 130 133 129 133 129 124 123 121 112 108 105 97 91 93 97 139 152 174 174 197 201 118 128 130 98 93 86 95 104 100 106 100 91 80 76 74 60 60 71 57 49 49 40 41
202 192 190 199 194 199 205 203 196 196 209 208 197 229 235 219 180 199 176 189 190 202 173 157 208 205 173 189 179 180 187 169 181 179 183 188 178 170 160 152 151 146 137 129 132 139 135 131 127 130 127 115 98 87 89 82 98 107 158 166 143 122 131 137 110 107 99 85 85 79 82 79 88 94 79 73 71 71 68 63 58 51 37 33 33 26
205 197 190 199 196 197 203 202 185 198 215 217 192 203 242 251 190 199 182 197 206 206 176 196 216 237 182 198 176 181 187 180 178 191 171 180 188 166 163 159 147 143 140 136 144 144 138 132 130 119 107 102 108 112 105 105 100 112 127 107 95 88 70 52 54 55 65 95 86 75 64 60 66 75 88 84 83 77 73 65 52 58 53 36 32 33
202 195 198 190 189 193 196 197 186 198 217 217 171 177 213 217 204 174 186 197 213 193 199 200 209 235 233 179 172 177 191 190 175 189 177 183 173 168 162 161 149 139 144 147 146 144 138 135 129 125 122 119 119 123 121 116 112 105 87 78 82 81 74 69 64 57 42 44 91 82 88 89 92 101 107 106 90 84 73 68 64 63 60 52 37 33
208 189 178 180 189 193 197 199 190 190 208 227 152 175 199 204 194 192 202 207 199 203 216 203 200 230 221 187 169 180 200 192 181 181 178 165 166 166 161 151 148 147 151 154 143 139 134 135 131 126 125 126 128 127 124 118 120 108 98 94 97 90 76 64 55 55 54 39 60 71 91 93 90 94 96 95 107 108 100 79 77 66 53 48 46 47
161 139 185 200 198 202 199 198 194 186 217 107 168 180 192 201 203 204 213 214 213 224 220 206 199 216 230 207 180 185 201 190 172 177 174 174 170 164 153 152 161 153 156 158 144 134 126 135 130 131 132 127 125 124 116 109 107 101 94 98 93 81 83 74 66 64 60 52 59 73 71 82 87 84 89 105 98 94 91 87 79 76 70 53 54 52
168 178 197 201 204 208 197 190 192 191 208 156 190 190 181 200 205 206 209 210 216 223 215 214 210 206 235 206 170 184 187 180 187 187 176 176 171 163 156 156 163 163 161 149 143 138 138 137 134 132 129 127 120 117 116 115 110 108 113 106 91 89 79 73 71 71 70 73 69 69 75 78 75 86 93 90 90 85 88 89 89 82 71 63 62 50
184 188 190 193 202 206 182 197 176 193 200 181 187 197 184 174 193 200 201 211 220 225 200 214 211 217 225 246 164 175 193 190 190 201 187 174 171 172 166 170 168 164 158 146 141 146 144 137 134 133 131 129 129 127 131 125 117 108 106 97 98 88 82 77 76 71 69 74 73 72 77 70 76 79 87 89 90 89 89 88 83 78 75 71 61 47
182 189 187 188 189 206 196 197 169 192 197 187 195 191 185 189 187 198 197 206 220 227 227 215 205 223 214 226 175 176 190 168 186 197 179 189 175 175 173 172 168 162 160 150 149 151 145 139 136 135 136 136 137 136 131 124 119 118 112 109 100 93 84 84 80 78 79 72 73 77 80 89 88 91 88 89 87 90 91 88 86 86 81 75 66 59
180 187 190 185 190 187 208 206 182 194 187 193 204 200 202 203 180 189 200 195 210 214 206 238 208 215 212 185 155 185 179 181 189 192 181 181 172 175 180 176 169 165 161 155 155 156 146 140 138 138 139 138 137 133 127 124 123 126 126 118 114 104 101 91 80 80 77 74 71 75 89 92 97 94 93 90 94 92 91 88 90 84 73 71 67 62
205 199 174 189 171 180 200 201 191 193 187 195 211 214 212 208 176 211 204 220 198 206 194 195 215 190 216 70 34 153 162 187 169 160 185 177 169 174 175 167 172 168 159 153 155 147 144 141 141 137 138 139 137 140 136 130 128 123 114 105 101 100 86 77 80 80 79 81 81 82 84 85 90 97 99 97 95 93 92 95 93 89 79 77 73 62
188 195 165 164 186 183 196 199 195 192 193 183 210 211 210 207 195 195 185 333 339 236 205 185 202 135 99 172 174 182 164 176 173 166 174 169 167 175 167 154 169 161 157 154 156 150 147 143 140 139 141 141 143 140 133 128 126 124 120 112 102 92 90 94 88 85 83 81 81 80 80 85 92 94 95 98 99 99 97 97 93 82 81 78 70 68
185 171 150 171 186 184 195 205 211 195 220 173 210 204 205 223 234 188 212 179 221 216 188 191 208 198 181 194 177 172 191 160 175 158 164 160 162 174 172 153 166 161 161 154 156 153 149 146 143 143 144 144 143 134 128 126 125 121 118 119 109 104 105 101 96 94 94 91 88 87 86 89 92 96 98 102 103 102 103 100 94 87 80 75 72 70
204 176 165 185 183 170 188 202 215 203 219 216 205 182 208 185 216 212 205 197 200 210 203 197 207 227 200 189 161 178 184 178 170 159 163 167 166 172 160 163 164 167 162 156 157 154 152 149 149 146 145 141 131 129 127 127 126 123 119 106 106 110 106 104 102 101 97 99 99 100 101 102 100 98 99 98 97 96 94 88 86 83 80 77 71 66
209 176 168 178 177 168 183 195 204 190 207 230 210 203 216 229 209 205 207 208 204 203 213 199 206 229 199 186 171 178 186 182 172 167 177 176 177 172 172 175 171 168 165 158 156 155 153 150 149 148 147 140 137 135 133 129 128 122 120 115 112 112 108 106 107 105 101 100 103 104 103 97 96 97 98 100 100 100 96 93 89 86 81 79 75 68
196 169 171 168 181 165 194 193 201 191 191 195 224 211 196 218 191 228 193 226 189 207 200 208 206 216 210 173 172 180 187 183 182 178 180 178 180 175 175 177 173 164 157 162 156 154 151 150 149 147 143 140 139 132 127 131 129 127 119 112 115 117 115 111 108 107 106 107 105 105 101 100 97 97 94 91 89 88 86 84 83 81 83 79 74 73
189 181 180 169 182 189 197 186 203 196 197 189 204 211 200 190 187 200 206 204 224 209 200 203 221 210 89 27 167 176 179 188 189 184 184 173 180 179 174 178 168 153 161 164 157 154 150 149 147 146 145 142 140 136 138 140 137 133 124 119 120 122 121 118 114 114 113 110 109 106 105 102 100 95 92 92 91 90 90 88 87 89 82 77 69 67
203 180 180 177 185 185 193 175 207 209 200 198 202 212 206 193 213 199 217 193 215 229 236 221 234 182 64 37 158 186 180 185 184 188 182 171 176 180 178 171 155 158 163 160 158 154 150 148 148 147 146 145 145 145 146 146 134 138 131 127 130 129 124 122 120 118 117 117 115 109 105 105 101 99 96 95 92 91 90 91 90 89 88 81 75 62
11 200 165 182 173 169 191 185 197 218 206 201 206 228 208 203 205 219 213 202 207 213 223 204 222 109 72 35 52 214 170 177 173 177 168 172 171 179 173 161 160 159 157 158 155 153 151 150 148 147 149 150 150 150 151 140 134 138 131 132 134 130 129 130 128 123 123 118 116 112 108 104 103 101 101 98 95 92 90 89 85 79 75 75 76 77
177 219 186 174 171 167 190 180 190 203 220 209 203 209 219 210 197 218 244 228 218 222 226 217 212 159 139 149 128 166 144 153 157 162 163 167 169 166 167 160 148 158 158 157 154 154 153 152 150 153 154 153 149 151 152 148 138 144 137 139 137 136 133 126 122 120 118 118 115 112 107 103 101 100 99 98 96 93 90 84 82 80 81 78 72 66
211 204 197 185 182 182 183 182 188 190 202 206 214 198 210 220 204 196 218 217 231 202 223 228 212 104 113 161 169 162 167 150 158 162 163 157 157 163 167 150 148 161 164 157 157 156 156 156 154 157 156 152 151 153 157 149 141 140 142 136 135 134 129 124 120 121 122 120 116 113 110 106 105 102 100 97 94 92 91 90 86 86 78 77 80 76
219 210 210 200 194 198 189 183 193 196 179 207 202 208 197 216 217 210 207 225 219 189 224 215 207 132 158 168 172 173 174 167 163 166 163 164 170 165 154 146 157 161 162 163 160 157 155 159 161 158 156 153 153 158 156 150 150 144 141 137 136 134 130 127 128 126 125 122 119 118 112 108 104 102 98 95 95 96 93 88 86 83 79 76 76 77
221 206 202 222 212 202 190 196 184 190 199 203 206 205 205 202 215 208 208 218 187 212 216 195 177 151 164 171 175 176 166 174 166 165 161 156 158 157 157 145 149 161 161 158 159 160 162 161 160 159 157 155 155 158 155 150 149 146 143 137 133 131 130 130 129 127 124 122 116 113 113 110 108 102 98 96 94 92 92 92 87 80 75 73 69 68
196 204 196 214 213 115 327 225 189 187 200 198 208 207 209 205 206 215 214 217 198 221 234 183 191 198 176 188 181 179 177 173 167 164 156 160 159 157 158 165 169 172 165 168 166 165 165 164 162 160 157 158 159 161 155 145 150 148 139 135 133 132 133 132 130 129 127 124 122 116 111 110 106 106 108 105 99 95 91 88 87 88 87 81 73 63
225 204 199 207 199 198 179 330 181 187 193 200 204 207 204 210 210 211 214 205 219 216 240 256 203 221 202 181 184 180 178 160 150 154 159 171 173 171 169 170 175 174 172 171 169 167 167 165 162 159 159 159 160 163 155 150 153 148 140 137 138 136 134 134 133 130 128 124 121 122 118 114 113 110 109 109 106 103 100 97 92 89 82 74 72 71
237 174 195 190 208 184 181 204 183 216 201 216 204 205 203 208 214 211 213 207 214 232 222 230 177 205 230 201 184 165 160 151 148 162 169 171 175 176 176 176 179 175 175 171 169 168 168 163 162 160 160 161 164 166 149 155 155 145 139 138 140 138 137 134 133 130 129 127 127 124 122 118 114 117 112 107 108 110 105 95 91 84 78 76 75 75
211 198 180 204 215 201 181 189 207 233 218 225 222 218 207 202 208 204 213 208 210 216 217 220 214 207 153 168 135 149 164 166 168 169 169 174 179 180 183 184 184 178 177 172 170 168 165 162 162 162 162 163 163 164 158 158 153 146 141 142 139 140 138 134 133 131 129 127 129 128 124 122 121 118 117 118 113 110 105 107 101 92 87 89 84 80
195 193 193 198 206 217 187 197 195 205 206 226 222 216 221 215 212 206 207 210 212 214 216 207 214 222 185 155 163 169 177 178 176 175 174 173 180 187 187 185 183 178 177 172 170 169 166 166 164 160 164 163 168 167 158 158 153 145 143 141 140 139 136 136 134 132 131 134 132 126 126 126 123 120 119 116 113 111 112 106 103 97 94 86 84 82
189 212 194 199 203 212 188 190 193 210 216 219 73 271 216 217 211 219 201 204 205 205 222 210 216 225 175 166 174 176 183 186 188 182 175 171 175 186 190 190 184 179 176 170 171 168 167 166 163 162 165 165 170 162 158 159 147 141 139 139 140 139 140 139 136 134 135 133 130 130 130 128 125 121 118 119 119 118 113 108 101 104 102 101 93 85
190 207 212 185 206 204 179 185 208 220 224 77 176 71 94 223 214 218 228 203 199 198 215 218 209 226 175 188 187 182 190 185 178 172 177 175 174 178 183 185 184 181 176 172 171 169 167 170 165 162 164 166 170 155 157 155 146 142 143 143 142 143 142 141 137 137 135 134 133 132 130 129 128 125 124 121 119 117 113 111 116 115 112 107 101 96
190 192 223 202 199 218 176 199 218 226 106 148 80 107 57 80 222 216 223 209 209 213 213 222 216 225 198 207 205 189 180 161 168 176 175 173 177 180 183 181 179 179 176 175 172 168 168 170 165 160 166 166 157 156 158 152 153 149 145 145 144 145 143 140 139 137 136 135 136 134 133 130 127 126 126 124 122 120 115 115 113 107 109 107 103 98
190 194 213 225 194 221 207 201 219 92 150 145 156 173 182 184 186 197 210 211 205 214 214 214 217 216 205 205 184 145 144 149 169 173 177 178 180 187 183 176 176 181 179 175 170 167 168 165 163 165 164 161 158 160 158 153 154 150 147 148 146 146 143 142 140 138 139 139 136 135 134 133 132 129 128 126 123 118 117 119 121 119 115 111 107 103
195 203 190 241 185 242 212 213 224 211 229 198 226 163 183 199 194 202 216 231 207 212 210 212 213 204 196 177 158 148 148 163 185 189 183 182 180 183 181 179 176 176 177 178 164 166 169 165 163 164 162 156 158 159 154 159 155 150 147 147 148 145 145 143 141 142 142 139 137 137 135 133 131 130 129 129 124 120 121 120 117 118 122 116 118 112
183 214 203 210 201 199 249 238 215 228 216 237 187 171 163 159 195 173 214 240 198 201 203 210 208 193 185 172 162 152 168 195 205 196 174 176 176 178 175 169 170 175 174 175 175 167 165 162 166 169 152 157 157 157 159 159 154 151 148 148 148 148 146 145 142 144 142 139 138 135 134 133 131 130 128 123 122 124 124 120 116 115 117 116 119 122
209 202 213 203 222 213 226 234 244 213 256 130 118 142 151 159 150 183 222 231 180 187 197 202 203 186 182 174 164 174 187 211 218 191 159 171 171 170 174 170 173 176 174 164 168 164 163 162 157 150 156 162 158 159 160 156 154 150 148 150 148 149 147 145 145 141 139 138 137 135 132 129 128 126 126 125 127 127 123 125 132 136 139 144 132 120
194 212 225 220 212 209 206 237 244 234 80 128 137 144 144 151 182 209 215 73 335 194 190 196 202 183 178 174 176 192 201 63 28 126 147 155 160 165 172 168 170 174 170 165 163 160 163 163 158 152 156 159 161 161 159 157 151 151 151 151 151 150 146 144 142 140 139 136 134 133 130 129 129 127 126 126 126 126 128 126 126 131 126 112 100 100
189 200 207 226 218 217 200 228 232 246 71 93 145 135 139 150 189 223 58 317 300 214 183 194 188 177 180 182 183 204 138 109 133 130 146 157 163 165 166 167 169 168 165 167 154 157 157 151 150 154 160 161 160 160 159 155 152 153 153 154 151 147 144 144 141 141 138 139 138 134 131 129 128 128 126 127 130 134 128 129 134 136 134 118 120 131
172 191 197 199 224 244 227 221 219 236 176 205 132 137 159 220 21 72 118 54 345 130 172 173 179 168 181 174 172 103 108 132 138 149 152 160 162 166 169 167 168 167 167 163 157 154 151 152 156 156 153 156 161 160 157 154 154 154 154 154 148 146 145 143 143 143 143 139 135 132 131 130 131 131 131 134 138 135 137 142 139 129 121 131 134 131
158 205 198 204 207 221 215 225 223 15 119 168 171 218 191 82 112 354 328 132 70 125 166 148 166 168 173 169 150 132 137 138 149 150 156 160 164 164 169 165 169 169 166 166 162 155 155 153 154 151 151 157 157 158 156 156 155 154 156 150 147 146 144 145 146 145 139 136 135 136 136 138 137 135 137 141 143 143 143 142 148 163 163 174 167 152
157 242 32 263 168 224 281 52 63 260 131 171 81 61 70 84 60 21 6 61 131 115 119 155 146 158 163 164 146 145 145 156 155 160 160 164 163 169 164 167 166 166 167 171 163 156 157 154 151 150 153 155 156 156 156 158 155 155 153 148 149 147 149 149 147 143 140 142 140 141 143 142 140 142 145 149 153 149 146 153 163 148 159 173 156 148
9 299 243 218 285 290 117 90 76 75 146 120 73 57 95 93 62 28 3 46 59 66 76 98 142 159 167 166 150 157 156 156 157 161 161 165 165 160 160 163 167 166 171 168 159 159 158 152 150 152 152 154 156 155 156 157 156 157 149 149 150 150 151 149 146 145 148 145 145 149 147 146 147 150 151 161 156 156 156 163 167 155 159 154 144 139
149 223 218 222 151 97 211 155 207 150 139 149 125 122 100 143 87 26 56 37 47 56 70 65 123 150 167 165 156 158 157 159 155 154 154 156 155 159 170 170 170 170 174 165 158 158 156 154 153 154 153 153 155 156 157 156 158 154 150 151 152 153 151 147 146 148 148 146 151 154 152 151 155 153 161 168 168 161 160 162 136 144 153 150 134 126
174 178 244 225 221 231 291 95 89 114 133 185 186 161 171 172 170 127 42 37 36 49 53 76 89 153 155 159 156 161 155 160 161 158 165 169 171 169 168 173 171 175 171 161 158 159 155 156 155 154 154 154 157 158 157 157 159 154 154 153 154 152 148 146 150 152 151 154 156 157 155 160 140 158 164 173 168 162 164 157 169 163 146 110 135 163
54 173 235 196 232 216 203 152 155 143 180 188 187 217 173 148 163 141 117 111 104 100 90 95 28 115 164 149 163 162 156 165 168 167 168 169 171 175 183 177 175 176 168 162 160 159 157 157 155 155 156 155 157 158 157 159 157 156 155 156 153 149 148 150 155 155 156 159 159 158 161 152 163 176 162 167 174 165 158 150 172 141 113 52 28 22
235 241 228 246 244 234 243 339 206 228 227 148 159 184 156 127 151 140 144 154 132 141 121 129 147 149 161 167 166 166 167 169 168 174 174 173 172 171 163 170 179 176 167 161 158 159 157 157 156 157 157 156 157 158 158 160 156 155 157 155 153 153 152 155 160 160 159 163 160 159 161 159 176 178 164 171 174 159 105 65 68 30 58 115 77 66
234 338 276 259 276 359 81 341 12 50 133 353 50 144 170 179 202 198 189 193 185 171 172 166 163 164 179 165 176 172 172 170 169 178 185 180 179 177 179 179 181 176 165 163 162 162 159 157 156 156 156 157 158 158 159 158 155 156 159 158 158 156 153 155 159 159 163 167 165 162 166 164 177 178 171 173 170 164 147 158 109 90 84 94 120 121